Regional Weather Roundup
Issued by NWS

Home | Current Version | Previous Version | Text Only | Print | Product List | Glossary Off
Versions: 1 2 3 4 5 6 7 8 9 10 11 12 13 14 15 16 17 18 19 20 21 22 23 24 25 26 27 28 29 30 31 32 33 34 35 36 37 38 39 40 41 42 43 44 45 46 47 48 49 50

000
ASUS43 KLOT 040312
RWRIL

ILLINOIS REGIONAL WEATHER ROUNDUP
NATIONAL WEATHER SERVICE CHICAGO/ROMEOVILLE IL
1000 PM CDT THU SEP 03 2015

NOTE: "FAIR" INDICATES FEW OR NO CLOUDS BELOW 12,000 FEET WITH NO
SIGNIFICANT WEATHER AND/OR OBSTRUCTIONS TO VISIBILITY.

* THESE STATIONS ARE NOT UNDER NWS QUALITY CONTROL. THEY ALSO MAY NOT
  REPORT WEATHER SUCH AS PRECIPITATION OR FOG.

ILZ001-002-007-009-015-016-024-040400-
NORTHWEST ILLINOIS

CITY           SKY/WX    TMP DP  RH WIND       PRES   REMARKS
MOLINE         CLEAR     77  71  82 CALM      29.92R
STERLING*      CLEAR     77  73  88 CALM      29.91R
SAVANNA*       CLEAR     75  72  91 E3        29.92R
$$

ILZ003-004-008-010-011-017-018-040400-
NORTH CENTRAL ILLINOIS

CITY           SKY/WX    TMP DP  RH WIND       PRES   REMARKS
ROCKFORD       PTCLDY    78  71  79 NE9       29.95R HX  80
FREEPORT*      CLOUDY    74  72  92 E7        29.96R
ROCHELLE*      PTCLDY    73  72  96 CALM      29.94R
DE KALB*       MOCLDY    74  70  87 E6        29.96R
PERU*          CLEAR     78  68  70 CALM      29.93S HX  80
$$

ILZ005-006-012>014-019>023-040400-
NORTHEAST ILLINOIS

CITY           SKY/WX    TMP DP  RH WIND       PRES   REMARKS
CHICAGO-OHARE  MOCLDY    73  66  78 NE7G18    29.94R
CHICAGO-MIDWAY PTCLDY    76  67  73 NE9       29.94R
AURORA         PTCLDY    74  69  85 E6        29.94R
LANSING*       CLEAR     73  68  86 NE3       29.93S
JOLIET*        MOCLDY    80  73  78 N9        29.92R HX  83
WAUKEGAN       CLOUDY    69  66  90 VRB3      29.95R
DUPAGE AIRPORT MOCLDY    73  66  78 NE6       29.94R
KANKAKEE*      CLEAR     74  69  86 CALM      29.92F
WHEELING       MOCLDY    71  67  87 NE6       29.96R
MORRIS*        CLEAR     76  70  81 SW3       29.91S
ROMEOVILLE*    PTCLDY    74  68  81 NE8       29.93R
NORTHERLY ISL    N/A     71  67  87 N6          N/A
$$

LMZ740>746-040400-
SOUTHERN LAKE MICHIGAN

STATION/POSITION SKY/WX   TEMP    WIND        PRES    VSBY  WAVE
                          AIR SEA DIR/SP/G                  HT/PER
                          (F)     (DEG/KT/KT) (MB)    (MI)  (FT/S)
SOUTHERN BUOY              70 71  360/ 12/ 14 1013.0
WILMETTE HARBOR            65 69  140/  8/ 10   N/A           2/ 2
HARRISON CRIB              68     340/  9/ 10   N/A
BURNHAM HARBOR             71     360/  5/  7   N/A
CALUMET HARBOR             72      10/  5/  9   N/A
BURNS HARBOR               73      50/ 12/ 15 1013.5R
MICHIGAN CITY              72      10/ 13/ 14   N/A
MICHIGAN CITY 6N           73 73   50/ 10/ 14   N/A           2/ 3
ST. JOSEPH                 71 73   70/ 12/ 14   N/A           2/ 3
$$

ILZ025>027-034>036-040-047-049-050-058-095>099-040400-
WEST-CENTRAL ILLINOIS

CITY           SKY/WX    TMP DP  RH WIND       PRES   REMARKS
QUINCY         CLEAR     78  68  71 S5        29.94R HX  80
GALESBURG*     PTCLDY    76  70  81 SE3       29.94R
MACOMB*        CLEAR     74  69  85 CALM      29.96R
JACKSONVILLE*  CLEAR     78  70  74 S3        29.95R HX  81
PITTSFIELD*    CLEAR     77  70  80 CALM      29.96R
$$

ILZ028>032-037-038-041>044-048-051>054-059>061-040400-
CENTRAL ILLINOIS

CITY           SKY/WX    TMP DP  RH WIND       PRES   REMARKS
PONTIAC        CLEAR     74  71  90 CALM      29.94S
BLOOMINGTON    CLEAR     78  69  73 CALM      29.97R HX  80
DECATUR        CLEAR     78  68  71 SW6       29.96R HX  80
PEORIA         CLOUDY    81  70  69 CALM      29.94R HX  84
LACON*         CLEAR     74  70  89 CALM      29.93S
LINCOLN*       CLEAR     75  66  75 CALM      29.94R
SPRINGFIELD    MOCLDY    76  67  73 CALM      29.95R
TAYLORVILLE    PTCLDY    73  68  83 S3        29.97R
$$

ILZ033-039-045-046-055>057-062-063-040400-
EAST-CENTRAL ILLINOIS

CITY           SKY/WX    TMP DP  RH WIND       PRES   REMARKS
CHAMPAIGN      CLEAR     74  69  85 SW6       29.96R
RANTOUL*       CLEAR     79  71  76 SW6       29.95S HX  82
MATTOON        CLEAR     79  68  69 SW6       29.96R HX  81
PARIS*         CLEAR     74  69  85 SW6       29.97R
$$

ILZ079-100>102-040400-
SOUTHWEST ILLINOIS

CITY           SKY/WX    TMP DP  RH WIND       PRES   REMARKS
ALTON          CLEAR     73  70  88 CALM      29.96R
BELLEVILLE     CLEAR     76  74  94 CALM      29.95R
CAHOKIA*       CLEAR     78  70  76 S3        29.95R HX  80
SPARTA*        CLEAR     78  71  80 S5        29.98R HX  80
$$

ILZ064>066-069>071-074>076-080>082-084>086-088>090-092>094-040400-
SOUTH-CENTRAL ILLINOIS

CITY           SKY/WX    TMP DP  RH WIND       PRES   REMARKS
CARBONDALE     CLEAR     73  70  90 CALM      29.97R
CAIRO*         CLEAR     72  72 100 CALM      29.96R
EFFINGHAM*     CLEAR     73  69  86 CALM      29.98R
MARION         CLEAR     75  72  88 CALM      29.98R
MT. VERNON     CLEAR     72  64  78 CALM      29.98R
CENTRALIA*     CLEAR     74  72  95 CALM      29.96R
SALEM*         CLEAR     73  69  87 CALM      29.97R
METROPOLIS*    CLEAR     72  72  99 CALM      29.98R FOG
$$

ILZ067-068-072-073-078-083-087-091-040400-
SOUTHEAST ILLINOIS

CITY           SKY/WX    TMP DP  RH WIND       PRES   REMARKS
LAWRENCEVILLE  PTCLDY    76  69  79 CALM      29.96R
FLORA*         CLEAR     73  68  84 CALM      29.97S
FAIRFIELD*     CLEAR     72  69  90 CALM      29.96R
HARRISBURG*    CLEAR     73  69  90 CALM      29.97R
ROBINSON*      CLEAR     71  69  93 CALM      29.96S
CARMI*         CLEAR     71  69  95 CALM      29.96R
$$

ABBREVIATIONS USED IN REMARKS
   TC - TEMPERATURE IN CELSIUS
  WCI - WIND CHILL INDEX
   HX - HEAT INDEX
  VSB - VISIBILITY
$$




USA.gov is the U.S. government's official web portal to all federal, state and local government web resources and services.